Regional Weather Roundup
Issued by NWS

Home | Current Version | Previous Version | Text Only | Print | Product List | Glossary Off
Versions: 1 2 3 4 5 6 7 8 9 10 11 12 13 14 15 16 17 18 19 20 21 22 23 24 25 26 27

000
ASUS45 KSLC 281210
RWRUT

UTAH REGIONAL WEATHER ROUNDUP
NATIONAL WEATHER SERVICE SALT LAKE CITY UT
600 AM MDT THU APR 28 2016

UTZ001>011-023>025-281300-

NORTHERN UTAH

CITY           SKY/WX    TMP DP  RH WIND       PRES   REMARKS
BRIGHAM CITY   MOCLDY    50  31  48 E13G20    29.70S
HILL AFB       CLOUDY    46  33  60 E21G28    29.67F
LOGAN          CLOUDY    47  32  56 SE17G24   29.72F
OGDEN          CLOUDY    49  33  54 NE13      29.68R
PROVO AIRPORT  CLOUDY    45  39  81 CALM      29.68F
SALT LAKE CITY CLOUDY    47  42  83 SW5       29.67S
VERNAL         LGT RAIN  42  33  70 E8        29.73S
WENDOVER       CLOUDY    45  39  81 S3        29.68S
HEBER CITY     MIX PCPN  39  36  87 W5        29.69S

$$

UTZ012>022-026-027-281300-

SOUTHERN/CENTRAL UTAH

CITY           SKY/WX    TMP DP  RH WIND       PRES   REMARKS
BLANDING       CLOUDY    40  39  97 NE5       29.79S
BRYCE CANYON   LGT SNOW  32  31  96 CALM      29.69F FOG
CEDAR CITY     CLOUDY    35  35 100 CALM      29.64R FOG
DELTA          PTCLDY    37  37 100 N5        29.66F WCI  34
HANKSVILLE     CLOUDY    45  43  93 NE7       29.70F
MILFORD        MOCLDY    36  35  96 N6        29.65S WCI  31
MOAB/CYNLANDS  CLOUDY    45  43  93 SE5       29.68S
PRICE          CLOUDY    35  33  92 SW3       29.70S
ST GEORGE      CLOUDY    50  37  62 SE10      29.64R

$$

REGIONAL REPORTS     COLORADO/ARIZONA

CITY           SKY/WX    TMP DP  RH WIND       PRES   REMARKS
CRAIG, CO      CLOUDY    32  28  85 CALM      29.77F
GRAND JUNCTION LGT RAIN  44  42  93 N3        29.70S
RIFLE          LGT RAIN  43  36  76 CALM      29.72F
MONTROSE       CLOUDY    44  38  79 CALM      29.74S
CORTEZ         CLOUDY    43  38  82 E6        29.74F
PAGE, AZ       CLOUDY    49  38  65 S16G24    29.64F
GRAND CANYON   CLOUDY    37  33  85 E3        29.69S
KINGMAN        MOCLDY    43  39  86 S8        29.63F
FLAGSTAFF      PTCLDY    37  28  70 SW12      29.70S WCI  29

$$

REGIONAL REPORTS    NEVADA/IDAHO/WYOMING

CITY           SKY/WX    TMP DP  RH WIND       PRES   REMARKS
LAS VEGAS, NV  LGT RAIN  52  46  80 S3        29.58R
ELY            LGT RAIN  35  34  96 N14       29.68F WCI  26
ELKO           LGT RAIN  40  36  86 SW5       29.73F
POCATELLO, ID  CLEAR     35  28  75 NE5       29.80S WCI  31
BURLEY         CLEAR     39  31  72 E3        29.78S
EVANSTON, WY   CLOUDY    32  26  78 E21G26    29.76R WCI  20
ROCK SPRINGS   CLOUDY    30  25  81 E17       29.84S WCI  18

$$




USA.gov is the U.S. government's official web portal to all federal, state and local government web resources and services.